Weather History for Crossville, TN

Change the Weather History Date:

Wednesday, April 30, 2014

  Actual Average Record
Temperature  
Mean Temperature 59 °F 60 °F  
Max Temperature 66 °F 71 °F 86 °F (1962)
Min Temperature 52 °F 49 °F 35 °F (2008)
Degree Days  
Heating Degree Days 6    
Month to date heating degree days 217  
Since 1 July heating degree days 4394  
Cooling Degree Days 0    
Month to date cooling degree days 11  
Year to date cooling degree days 11  
Growing Degree Days 8 (Base 50)    
Moisture  
Dew Point 56 °F    
Average Humidity 80    
Maximum Humidity 100    
Minimum Humidity 60    
Precipitation  
Precipitation 1.24 in 0.15 in 1.69 in (1998)
Month to date precipitation 6.00 4.82  
Year to date precipitation 14.65 19.02  
Sea Level Pressure  
Sea Level Pressure 29.83 in    
Wind  
Wind Speed 7 mph (WSW)    
Max Wind Speed 16 mph    
Max Gust Speed 23 mph    
Visibility 5 miles    
Events Rain , Thunderstorm    
T = Trace of Precipitation, MM = Missing Value Source: NWS Daily Summary

Daily Weather History Graph

Daily Weather History Graph

Search for Another Location

Airport:

Trip Planner

Search our weather history database for the weather conditions in past years. The results will help you decide how hot, cold, wet, or windy it might be!

Date:

Astronomy

Apr. 30, 2014 Rise Set
Actual Time 5:48 AM CDT 7:26 PM CDT
Civil Twilight 5:21 AM CDT 7:54 PM CDT
Nautical Twilight 4:48 AM CDT 8:27 PM CDT
Astronomical Twilight 4:13 AM CDT 9:02 PM CDT
Moon 6:50 AM CDT (4/30) 9:03 PM CDT (4/30)
Length of Visible Light 14h 32m
Length of Day
13h 37m
New Moon, 2% of the Moon is Illuminated
Apr 30
New Moon
May 6
First Quarter
May 14
Full
May 21
Last Quarter
May 28
New

Hourly Weather History & Observations

Time (CDT) Temp. Dew Point Humidity Pressure Visibility Wind Dir Wind Speed Gust Speed Precip Events Conditions
12:10 AM 55.0 °F 52.0 °F 89% 29.83 in 10.0 mi Variable 3.5 mph - N/A   Overcast
12:21 AM 55.0 °F 53.1 °F 93% 29.83 in 10.0 mi ENE 4.6 mph - N/A   Overcast
12:53 AM 57.0 °F 54.0 °F 89% 29.77 in 10.0 mi Calm Calm - N/A   Overcast
1:15 AM 64.9 °F 57.9 °F 78% 29.81 in 10.0 mi South 8.1 mph 21.9 mph N/A   Overcast
1:44 AM 66.0 °F 57.9 °F 75% 29.81 in 10.0 mi South 8.1 mph 19.6 mph N/A   Overcast
1:53 AM 66.0 °F 57.9 °F 75% 29.73 in 10.0 mi South 9.2 mph 17.3 mph N/A   Overcast
2:18 AM 63.0 °F 60.1 °F 90% 29.80 in 4.0 mi Variable 6.9 mph 21.9 mph 0.02 in Rain , Thunderstorm Thunderstorms and Rain
2:39 AM 63.0 °F 60.1 °F 90% 29.79 in 3.0 mi South 10.4 mph - 0.10 in Rain Rain
2:53 AM 62.1 °F 60.1 °F 93% 29.73 in 5.0 mi SSE 11.5 mph - 0.12 in Rain Rain
3:02 AM 62.1 °F 59.0 °F 90% 29.79 in 5.0 mi SSE 12.7 mph 19.6 mph 0.01 in Rain Light Rain
3:11 AM 61.0 °F 59.0 °F 93% 29.80 in 1.8 mi SSE 6.9 mph 19.6 mph 0.12 in Rain Heavy Rain
3:23 AM 61.0 °F 59.0 °F 93% 29.79 in 2.0 mi SSE 4.6 mph - 0.21 in Rain Heavy Rain
3:45 AM 61.0 °F 59.0 °F 93% 29.79 in 3.0 mi SSE 3.5 mph - 0.31 in Rain Heavy Rain
3:53 AM 61.0 °F 59.0 °F 93% 29.74 in 2.5 mi SW 3.5 mph - 0.35 in Rain Rain
4:20 AM 62.1 °F 60.1 °F 93% 29.80 in 1.0 mi West 9.2 mph - 0.25 in Rain Heavy Rain
4:23 AM 62.1 °F 60.1 °F 93% 29.79 in 0.8 mi West 10.4 mph - 0.34 in Rain Heavy Rain
4:32 AM 61.0 °F 60.1 °F 97% 29.79 in 1.0 mi West 9.2 mph - 0.45 in Rain Rain
4:41 AM 61.0 °F 59.0 °F 93% 29.80 in 1.8 mi Variable 6.9 mph - 0.49 in Rain Heavy Rain
4:48 AM 60.8 °F 60.8 °F 100% 29.81 in 2.0 mi Variable 3.5 mph - 0.50 in Rain Light Rain
4:53 AM 62.1 °F 60.1 °F 93% 29.75 in 4.0 mi SSW 5.8 mph - 0.50 in Rain Light Rain
5:14 AM 63.0 °F 60.1 °F 90% 29.80 in 10.0 mi South 8.1 mph - 0.00 in   Overcast
5:33 AM 63.0 °F 60.1 °F 90% 29.80 in 10.0 mi South 9.2 mph - 0.00 in   Overcast
5:53 AM 63.0 °F 60.1 °F 90% 29.75 in 10.0 mi Variable 6.9 mph - 0.00 in   Overcast
6:30 AM 63.0 °F 60.1 °F 90% 29.80 in 1.8 mi South 10.4 mph 18.4 mph 0.00 in Rain Light Rain
6:41 AM 63.0 °F 60.1 °F 90% 29.79 in 1.5 mi South 9.2 mph 17.3 mph 0.00 in   Overcast
6:53 AM 62.1 °F 60.1 °F 93% 29.75 in 1.8 mi Variable 4.6 mph - 0.00 in   Overcast
7:17 AM 62.1 °F 60.1 °F 93% 29.81 in 0.8 mi West 10.4 mph - 0.03 in Rain Rain
7:26 AM 60.1 °F 57.9 °F 93% 29.82 in 2.0 mi WSW 8.1 mph - 0.04 in Rain Light Rain
7:36 AM 60.1 °F 57.9 °F 93% 29.83 in 3.0 mi West 10.4 mph - 0.04 in Rain Light Rain
7:44 AM 59.0 °F 57.0 °F 93% 29.83 in 2.0 mi WSW 8.1 mph - 0.04 in Rain Light Rain
7:53 AM 59.0 °F 57.9 °F 96% 29.81 in 2.0 mi West 8.1 mph - 0.04 in Rain Light Rain
8:03 AM 59.0 °F 57.0 °F 93% 29.84 in 2.5 mi WSW 4.6 mph - 0.00 in   Overcast
8:15 AM 59.0 °F 57.0 °F 93% 29.83 in 4.0 mi Variable 3.5 mph - 0.00 in   Overcast
8:39 AM 59.0 °F 57.0 °F 93% 29.83 in 2.0 mi West 8.1 mph - 0.00 in   Overcast
8:53 AM 59.0 °F 57.0 °F 93% 29.81 in 2.0 mi West 9.2 mph - 0.00 in Rain Light Rain
9:21 AM 57.9 °F 55.9 °F 93% 29.82 in 2.5 mi WNW 5.8 mph - 0.01 in   Mist
9:29 AM 57.9 °F 55.9 °F 93% 29.82 in 1.8 mi NW 5.8 mph - 0.01 in Rain Light Rain
9:40 AM 57.9 °F 55.9 °F 93% 29.84 in 0.8 mi WNW 4.6 mph - 0.08 in Rain , Thunderstorm Heavy Thunderstorms and Rain
9:48 AM 57.2 °F 55.4 °F 94% 29.83 in 1.0 mi NW 4.6 mph - 0.09 in Rain , Thunderstorm Light Thunderstorms and Rain
10:01 AM 59.0 °F 55.9 °F 90% 29.84 in 7.0 mi Calm Calm - 0.00 in   Overcast
10:13 AM 59.0 °F 55.9 °F 90% 29.84 in 1.8 mi Calm Calm - 0.01 in Rain Light Rain
10:20 AM 59.0 °F 57.0 °F 93% 29.85 in 0.8 mi West 8.1 mph - 0.03 in Rain Heavy Rain
10:27 AM 59.0 °F 57.0 °F 93% 29.85 in 2.0 mi WSW 4.6 mph - 0.03 in Rain Light Rain
10:36 AM 59.0 °F 57.0 °F 93% 29.85 in 6.0 mi West 6.9 mph - 0.03 in   Overcast
10:49 AM 60.8 °F 57.2 °F 88% 29.85 in 2.0 mi West 8.1 mph - 0.04 in Rain Light Rain
10:53 AM 60.1 °F 57.0 °F 90% 29.83 in 2.0 mi West 8.1 mph - 0.04 in Rain Light Rain
11:06 AM 60.1 °F 57.0 °F 90% 29.85 in 4.0 mi West 5.8 mph - 0.00 in   Overcast
11:36 AM 60.1 °F 55.9 °F 86% 29.86 in 2.0 mi West 9.2 mph - 0.00 in Rain Light Rain
11:53 AM 59.0 °F 55.9 °F 90% 29.84 in 1.8 mi West 8.1 mph 17.3 mph 0.02 in Rain Rain
11:56 AM 59.0 °F 55.9 °F 90% 29.87 in 2.0 mi West 9.2 mph 17.3 mph 0.01 in Rain Light Rain
12:05 PM 59.0 °F 55.9 °F 90% 29.87 in 3.0 mi West 10.4 mph - 0.01 in Rain Light Rain
12:14 PM 59.0 °F 55.0 °F 87% 29.87 in 2.0 mi Variable 4.6 mph - 0.03 in Rain Light Rain
12:21 PM 59.0 °F 55.0 °F 87% 29.86 in 1.5 mi Variable 5.8 mph - 0.05 in Rain Light Rain
12:25 PM 59.0 °F 55.0 °F 87% 29.86 in 3.0 mi Variable 5.8 mph - 0.05 in Rain Light Rain
12:34 PM 59.0 °F 55.0 °F 87% 29.86 in 7.0 mi WSW 8.1 mph - 0.05 in Rain Light Rain
12:50 PM 59.0 °F 55.4 °F 88% 29.87 in 3.0 mi WSW 6.9 mph - 0.05 in Rain Light Rain
12:53 PM 59.0 °F 55.0 °F 87% 29.85 in 2.0 mi WSW 4.6 mph - 0.06 in Rain Rain
1:00 PM 59.0 °F 55.0 °F 87% 29.87 in 1.2 mi WSW 6.9 mph - 0.02 in Rain Rain
1:08 PM 59.0 °F 55.0 °F 87% 29.87 in 1.8 mi WSW 6.9 mph - 0.02 in Rain Light Rain
1:11 PM 59.0 °F 55.0 °F 87% 29.87 in 2.5 mi Variable 5.8 mph - 0.02 in Rain Light Rain
1:18 PM 59.0 °F 55.9 °F 90% 29.87 in 8.0 mi Variable 6.9 mph - 0.02 in Rain Light Rain
1:53 PM 60.1 °F 55.0 °F 83% 29.84 in 8.0 mi North - - 0.02 in Rain Light Rain
2:53 PM 60.1 °F 55.9 °F 86% 29.83 in 10.0 mi South 5.8 mph - 0.00 in   Overcast
3:53 PM 63.0 °F 55.0 °F 75% 29.82 in 10.0 mi West 9.2 mph - N/A   Mostly Cloudy
4:53 PM 63.0 °F 51.1 °F 65% 29.84 in 10.0 mi WSW 8.1 mph - N/A   Overcast
5:53 PM 64.0 °F 50.0 °F 60% 29.84 in 10.0 mi SW 8.1 mph - N/A   Overcast
6:53 PM 61.0 °F 50.0 °F 67% 29.86 in 10.0 mi SW 5.8 mph - N/A   Mostly Cloudy
7:53 PM 60.1 °F 48.9 °F 67% 29.89 in 10.0 mi WSW 6.9 mph - N/A   Partly Cloudy
8:53 PM 57.9 °F 46.9 °F 67% 29.91 in 10.0 mi WNW 10.4 mph - N/A   Mostly Cloudy
9:53 PM 55.9 °F 46.0 °F 69% 29.95 in 10.0 mi West 12.7 mph - N/A   Overcast
10:53 PM 54.0 °F 45.0 °F 72% 29.94 in 10.0 mi WNW 8.1 mph - N/A   Overcast
11:49 PM 51.8 °F 44.6 °F 76% 29.98 in 10.0 mi West 4.6 mph - N/A   Overcast
11:53 PM 52.0 °F 45.0 °F 77% 29.96 in 10.0 mi WNW 4.6 mph - N/A   Overcast